User: anonymous   Login
Location: Unspecified
(0.0000°N, 0.0000°E)
Time: 08:18:37
(UTC+00:00)
Language:

NOSS 2-3 (E) - Orbit

View from above orbital plane
View from above orbital plane
View from above satellite
View from above satellite

Ground track
Ground track

The orbit data is extracted from the following two-line orbital elements,

1 23936U 96029E   21113.82296957 0.00000150  00000-0  53489-4 0    07
2 23936  63.3514  32.0339 0729435  24.9101 335.0899 13.40973437    02
Epoch (UTC): 23 April 2021 19:45:04
Eccentricity: 0.0729435
inclination: 63.3514°
perigee height: 560 km
apogee height: 1651 km
right ascension of ascending node: 32.0339°
argument of perigee: 24.9101°
revolutions per day: 13.40973437
mean anomaly at epoch: 335.0899°
orbit number at epoch: 0

The dashed part of the orbit path shows where the satellite is in the earth's shadow,  

DLR